This is the latest recevied weather packets stored in our database for station/object WB3IGR. If no packets are shown the sender has not sent any weather packets the latest 10 day(s).
| Time | Temp. | Humidity | Pressure | Rain* | Wind** | Luminosity | Snow |
|---|---|---|---|---|---|---|---|
| 1777664868 | 16.11° C | 49% | 1012.7 hPa | 0 mm | - | 632 W/m² | - |
| 1777664564 | 17.22° C | 48% | 1012.9 hPa | 0 mm | - | 277 W/m² | - |
| 1777664261 | 17.78° C | 48% | 1013 hPa | 0 mm | - | 617 W/m² | - |
| 1777663959 | 17.78° C | 48% | 1012.8 hPa | 0 mm | - | 621 W/m² | - |
| 1777663657 | 17.22° C | 47% | 1012.9 hPa | 0 mm | - | 627 W/m² | - |
| 1777663353 | 17.22° C | 48% | 1012.8 hPa | 0 mm | - | 638 W/m² | - |
| 1777663051 | 16.67° C | 48% | 1013 hPa | 0 mm | - | 688 W/m² | - |
| 1777662748 | 16.67° C | 52% | 1013.2 hPa | 0 mm | - | 711 W/m² | - |
| 1777662444 | 16.11° C | 51% | 1013.3 hPa | 0 mm | - | 707 W/m² | - |
| 1777662140 | 16.11° C | 50% | 1013.4 hPa | 0 mm | - | 186 W/m² | - |
| 1777661836 | 17.78° C | 48% | 1013.6 hPa | 0 mm | - | 705 W/m² | - |
| 1777661532 | 16.67° C | 50% | 1013.4 hPa | 0 mm | - | 737 W/m² | - |
| 1777661228 | 16.11° C | 50% | 1013.4 hPa | 0 mm | - | 649 W/m² | - |
| 1777660923 | 16.67° C | 52% | 1013.4 hPa | 0 mm | - | 596 W/m² | - |
| 1777660619 | 16.67° C | 50% | 1013.6 hPa | 0 mm | - | 717 W/m² | - |
| 1777660317 | 16.67° C | 51% | 1013.5 hPa | 0 mm | - | 733 W/m² | - |
| 1777660013 | 16.67° C | 51% | 1013.4 hPa | 0 mm | - | 721 W/m² | - |
| 1777659709 | 16.67° C | 52% | 1013.5 hPa | 0 mm | - | 714 W/m² | - |
| 1777659407 | 16.67° C | 49% | 1013.5 hPa | 0 mm | - | 726 W/m² | - |
| 1777659104 | 16.11° C | 48% | 1013.5 hPa | 0 mm | - | 724 W/m² | - |
| 1777658802 | 16.11° C | 45% | 1013.7 hPa | 0 mm | - | 719 W/m² | - |
| 1777658498 | 16.11° C | 48% | 1013.8 hPa | 0 mm | - | 718 W/m² | - |
| 1777658194 | 16.67° C | 46% | 1013.7 hPa | 0 mm | - | 715 W/m² | - |
| 1777657892 | 15.56° C | 49% | 1013.7 hPa | 0 mm | - | 731 W/m² | - |
| 1777657588 | 16.11° C | 48% | 1013.8 hPa | 0 mm | - | 737 W/m² | - |
* Rain latest hour (hover to see other rain measurements)
** Current wind speed in m/s (hover to see current wind gust speed)